SLIM

导读

SLIM是日本宇宙航空研究开发机构研制的小型月球精准着陆探测器,于2023年9月6日发射。其核心任务是验证月球表面百米级精准着陆技术,为后续深空探测积累工程经验。该探测器于2024年1月成功完成月球着陆,在电池耗尽前,已将着陆过程及月面探测获取的全部数据传回地球,完成了核心技术验证目标。

基本信息
目录编号:
57803
目录名称:
SLIM
国际标识:
2023-137D
轨道中心:
EARTH
卫星名称:
SLIM
卫星全名:
--
卫星状态:
已陨落 最后检测时间 2024-01-19
发射日期:
2023-09-06 UTC
国别 :
日本 (JP)
星等 :
--
轨道信息
数据来源 国际轨道数据
星历时间: 2023-09-28T12:32:58+0800
轨道信息已过期1019天
半长轴: 62731.833km
偏心率: 0.8937577
轨道倾角: 31.068°
近地点辐角 245.766°
升交点赤经 15.593°
平近点角 359.729°
近地点: 286.639km
远地点: 112420.757km
周期: 2606.104分钟
每日圈数: 0.552549
详细信息
使用方式:
暂无